Location: Voyageurs National Park
(48.5020°N, 92.9292°W)
Time: 18:19:32
(UTC-06:00)

Amateur Radio Satellites - All Passes

Search period start: 05 February 2016 17:49
Search period end: 06 February 2016 17:49
Location: Voyageurs National Park, 48.5020°N, 92.9292°W

Satellite Date Start Highest point End Downlink Frequencies (MHz)
Time Altitude Azimuth
YUBILEINY 05 Feb 17:49:45 17:52:00 11° 293° (WNW) 17:54:16 435.215
CUBESAT XI-V 05 Feb 17:52:08 17:56:50 61° 101° (E) 18:01:30 437.345
PCSat 05 Feb 17:52:09 17:54:42 13° 17° (NNE) 17:57:16 145.827
BRITE-PL 05 Feb 17:52:28 17:58:10 74° 73° (ENE) 18:03:46 437.365/2234.400
DOVE 4 05 Feb 17:52:54 17:57:00 25° 64° (ENE) 18:00:59 437.250
LilacSat-2 05 Feb 17:53:57 17:57:45 62° 259° (W) 18:01:33 437.200
Cosmos 2491 05 Feb 17:55:25 18:02:30 27° 300° (WNW) 18:09:38 435.465 / 435.565
STARS 05 Feb 18:05:37 18:07:08 12° 305° (NW) 18:08:39 437.465
SEEDS 05 Feb 18:08:55 18:08:56 10° 56° (NE) 18:08:58 437.485
STRAND 1 05 Feb 18:13:05 18:16:13 16° 88° (E) 18:19:21 437.568
BEESAT 3 05 Feb 18:15:34 18:19:06 31° 119° (ESE) 18:22:40 437.485
BEESAT 2 05 Feb 18:31:02 18:34:34 30° 118° (ESE) 18:38:07 435.950
CANX-2 05 Feb 18:34:14 18:37:39 25° 65° (ENE) 18:41:06 2200.000
Cosmos 2504 05 Feb 18:34:27 18:41:03 25° 283° (WNW) 18:47:23 435.465 / 435.565
AAUSAT CUBESAT 2 05 Feb 18:35:21 18:36:53 12° 57° (ENE) 18:38:25 437.432
CUTE-I 05 Feb 18:42:18 18:46:42 26° 267° (W) 18:51:09 437.470
ISS 05 Feb 18:47:49 18:51:04 72° 155° (SSE) 18:54:18 145.825
Cubesat XI-IV 05 Feb 18:55:04 18:59:02 21° 269° (W) 19:03:01 437.490
O/OREOS (USA 219) 05 Feb 18:59:45 19:04:12 51° 250° (WSW) 19:08:38 437.305
Oscar 11 05 Feb 19:01:20 19:02:12 11° 55° (NE) 19:03:04 145.826/435.025
HO-68 05 Feb 19:01:25 19:08:29 65° 67° (ENE) 19:15:36 435.675
GONETS M04 05 Feb 19:16:08 19:24:00 35° 65° (ENE) 19:31:49
CINEMA 3 05 Feb 19:22:13 19:26:49 56° 72° (ENE) 19:31:14 145.822/145.860
AO-85 05 Feb 19:22:42 19:27:55 51° 44° (NE) 19:32:44 145.980
GOMX 1 05 Feb 19:24:17 19:29:17 36° 265° (W) 19:34:08 467.674
CUTE 1.7 + AOD 2 05 Feb 19:24:50 19:29:00 68° 73° (ENE) 19:33:13 437.475
DOVE 4 05 Feb 19:29:24 19:34:27 52° 261° (W) 19:39:18 437.250
CUBESAT XI-V 05 Feb 19:30:25 19:33:48 20° 300° (WNW) 19:37:10 437.345
BRITE-PL 05 Feb 19:33:01 19:37:08 20° 271° (W) 19:41:14 437.365/2234.400
COMPASS 1 05 Feb 19:34:25 19:38:25 49° 71° (ENE) 19:42:28 437.405
PCSat 05 Feb 19:34:52 19:39:50 34° 42° (NE) 19:44:45 145.827
SEEDS 05 Feb 19:39:44 19:43:53 75° 76° (ENE) 19:48:06 437.485
ZACube-1 05 Feb 19:42:55 19:45:58 20° 63° (ENE) 19:48:59 437.345
AIST 2 05 Feb 19:49:02 19:52:21 23° 115° (ESE) 19:55:39 435.215
STRAND 1 05 Feb 19:50:50 19:56:01 79° 288° (WNW) 20:01:10 437.568
BEESAT 3 05 Feb 19:53:08 19:56:50 35° 318° (NW) 20:00:33 437.485
FUNcube-1 05 Feb 19:54:08 19:57:30 24° 65° (ENE) 20:00:51 145.935
PRISM 05 Feb 19:59:00 20:03:05 47° 100° (E) 20:07:07 437.425
RS-15 05 Feb 19:59:59 20:11:56 63° 41° (NE) 20:24:10 29.354- 29.394
CUBEBUG 2 05 Feb 20:01:49 20:06:04 53° 72° (ENE) 20:10:13 437.445
Cosmos 2499 05 Feb 20:02:22 20:09:47 30° 61° (ENE) 20:16:45 435.465 / 435.565
AAUSAT CUBESAT 2 05 Feb 20:07:36 20:11:44 89° 266° (W) 20:15:55 437.432
BEESAT 2 05 Feb 20:08:38 20:12:24 37° 317° (NW) 20:16:12 435.950
CANX-2 05 Feb 20:09:27 20:13:22 37° 263° (W) 20:17:20 2200.000
UWE-3 05 Feb 20:12:49 20:16:59 50° 71° (ENE) 20:21:04 435.000/436.395/437.385
ISS 05 Feb 20:24:29 20:27:39 47° 354° (N) 20:30:50 145.825
DELFI C3 05 Feb 20:24:30 20:28:05 33° 68° (ENE) 20:31:42 145.870
Oscar 11 05 Feb 20:33:17 20:37:34 75° 73° (ENE) 20:41:54 145.826/435.025
HUMSAT D 05 Feb 20:42:16 20:45:35 24° 65° (ENE) 20:48:54 437.325/437.525
HO-68 05 Feb 20:50:34 20:56:42 30° 267° (W) 21:02:52 435.675
CINEMA 3 05 Feb 21:01:00 21:04:17 19° 269° (W) 21:07:29 145.822/145.860
CUTE 1.7 + AOD 2 05 Feb 21:03:14 21:05:20 13° 272° (W) 21:07:27 437.475
AO-85 05 Feb 21:03:41 21:08:14 31° 245° (WSW) 21:12:28 145.980
COMPASS 1 05 Feb 21:11:28 21:14:19 18° 270° (W) 21:17:09 437.405
GONETS M04 05 Feb 21:12:47 21:21:26 65° 267° (W) 21:30:06
VELOX 1 05 Feb 21:16:36 21:19:13 15° 58° (ENE) 21:21:50 145.980
ZACube-1 05 Feb 21:17:51 21:21:58 49° 260° (W) 21:26:03 437.345
PCSat 05 Feb 21:18:12 21:23:28 53° 243° (WSW) 21:28:43 145.827
SEEDS 05 Feb 21:18:28 21:20:09 12° 273° (W) 21:21:51 437.485
AIST 2 05 Feb 21:26:31 21:30:36 50° 314° (NW) 21:34:40 435.215
FUNcube-1 05 Feb 21:29:38 21:33:36 38° 262° (W) 21:37:32 145.935
AISAT 05 Feb 21:31:28 21:34:50 21° 62° (ENE) 21:38:13 437.250
STRAND 1 05 Feb 21:31:42 21:34:24 14° 306° (NW) 21:37:04 437.568
50 SAT 05 Feb 21:33:48 21:36:32 20° 64° (ENE) 21:39:18 437.505
ESTCUBE 1 05 Feb 21:34:18 21:37:53 24° 63° (ENE) 21:41:29 437.505/2401.250
BEESAT 3 05 Feb 21:34:34 21:35:44 11° 340° (NNW) 21:36:53 437.485
PRISM 05 Feb 21:35:00 21:38:07 20° 298° (WNW) 21:41:13 437.425
AIST 1 05 Feb 21:36:20 21:40:22 34° 73° (ENE) 21:44:20
CUBEBUG 2 05 Feb 21:40:03 21:43:01 18° 269° (W) 21:45:56 437.445
ANTELSAT 05 Feb 21:46:56 21:50:02 19° 92° (E) 21:53:10 437.575/2403.000
BEESAT 2 05 Feb 21:50:02 21:51:25 11° 339° (NNW) 21:52:48 435.950
UWE-3 05 Feb 21:50:47 21:53:45 18° 269° (W) 21:56:41 435.000/436.395/437.385
Cosmos 2499 05 Feb 21:55:12 22:03:50 74° 266° (W) 22:11:50 435.465 / 435.565
TIGRISAT 05 Feb 21:55:17 21:58:39 22° 93° (E) 22:02:02 435.000
DELFI C3 05 Feb 21:59:50 22:03:04 24° 266° (W) 22:06:22 145.870
ISS 05 Feb 22:01:11 22:04:24 61° 14° (NNE) 22:07:38 145.825
CUBEBUG 1 05 Feb 22:04:09 22:08:07 33° 66° (ENE) 22:12:06 437.445
UKube-1 05 Feb 22:09:30 22:13:34 41° 68° (ENE) 22:17:40 .
Oscar 11 05 Feb 22:12:21 22:14:15 13° 272° (W) 22:16:10 145.826/435.025
RS-15 05 Feb 22:12:52 22:24:26 54° 246° (WSW) 22:36:11 29.354- 29.394
DX 1 05 Feb 22:12:56 22:17:11 51° 70° (ENE) 22:21:28 434.975-435.025
HUMSAT D 05 Feb 22:17:19 22:21:05 36° 263° (W) 22:24:53 437.325/437.525
SPROUT 05 Feb 22:27:42 22:31:01 22° 63° (ENE) 22:34:20 437.525
UNISAT 6 05 Feb 22:37:36 22:41:52 60° 101° (E) 22:46:10 437.425
POPSAT HIP 1 05 Feb 22:42:38 22:45:35 18° 91° (E) 22:48:30 437.405
NANOSAT C BR1 05 Feb 22:50:06 22:53:20 21° 93° (E) 22:56:32 145.865
VELOX 1 05 Feb 22:50:40 22:55:09 77° 257° (WSW) 22:59:39 145.980
DUCHIFAT 1 05 Feb 22:53:36 22:56:53 22° 93° (E) 23:00:08 145.980
TISAT 1 05 Feb 22:55:10 22:58:00 18° 61° (ENE) 23:00:49 437.305
QB50P1 05 Feb 22:55:22 22:58:50 24° 94° (E) 23:02:17 145.935-145.965
AISAT 05 Feb 23:06:39 23:11:01 51° 260° (W) 23:15:25 437.250
50 SAT 05 Feb 23:06:55 23:10:23 37° 262° (W) 23:13:52 437.505
AIST 2 05 Feb 23:07:51 23:10:03 14° 336° (NNW) 23:12:15 435.215
ESTCUBE 1 05 Feb 23:10:06 23:14:26 46° 261° (W) 23:18:51 437.505/2401.250
GONETS M04 05 Feb 23:12:16 23:16:25 14° 290° (WNW) 23:20:37
AIST 1 05 Feb 23:14:12 23:17:50 26° 272° (W) 23:21:25
ANTELSAT 05 Feb 23:22:54 23:27:03 49° 289° (WNW) 23:31:14 437.575/2403.000
TIGRISAT 05 Feb 23:31:30 23:35:33 42° 291° (WNW) 23:39:38 435.000
ISS 05 Feb 23:37:45 23:40:47 37° 213° (SSW) 23:43:48 145.825
CUBEBUG 1 05 Feb 23:40:29 23:44:25 31° 265° (W) 23:48:23 437.445
POLYITAN 1 05 Feb 23:45:33 23:49:47 81° 104° (ESE) 23:54:00 437.675
UKube-1 05 Feb 23:46:18 23:49:47 23° 266° (W) 23:53:18 .
QB50P2 05 Feb 23:46:28 23:50:42 85° 104° (ESE) 23:54:55 145.880/145.840
Cosmos 2499 05 Feb 23:50:22 23:55:19 17° 288° (WNW) 00:00:07 435.465 / 435.565
DX 1 05 Feb 23:50:32 23:53:41 19° 268° (W) 23:56:52 434.975-435.025
SWISSCUBE 05 Feb 23:55:44 23:59:01 19° 59° (ENE) 00:02:20 437.505
SPROUT 06 Feb 00:02:36 00:06:45 45° 261° (W) 00:10:54 437.525
Cosmos 2491 06 Feb 00:06:39 00:10:30 13° 45° (NE) 00:14:19 435.465 / 435.565
BUGSAT 1 06 Feb 00:14:34 00:18:41 82° 103° (ESE) 00:22:42 437.445
UNISAT 6 06 Feb 00:15:22 00:18:12 17° 299° (WNW) 00:21:03 437.425
POPSAT HIP 1 06 Feb 00:17:36 00:21:40 49° 289° (WNW) 00:25:43 437.405
NANOSAT C BR1 06 Feb 00:25:18 00:29:17 42° 291° (WNW) 00:33:14 145.865
DUCHIFAT 1 06 Feb 00:28:50 00:32:46 40° 291° (WNW) 00:36:41 145.980
ITUPSAT 1 06 Feb 00:28:58 00:33:10 31° 64° (ENE) 00:37:23 437.325
TISAT 1 06 Feb 00:29:05 00:33:17 58° 259° (W) 00:37:29 437.305
RS-15 06 Feb 00:29:33 00:33:53 13° 269° (W) 00:38:14 29.354- 29.394
QB50P1 06 Feb 00:30:52 00:34:44 36° 292° (WNW) 00:38:35 145.935-145.965
CUSAT 1 06 Feb 00:35:46 00:40:19 17° 76° (ENE) 00:44:54 437.405
JAS-2 06 Feb 00:39:22 00:42:41 15° 84° (E) 00:45:49 435.910
BEESAT 06 Feb 00:40:13 00:44:38 39° 67° (ENE) 00:49:05 436.000
BEESAT 3 06 Feb 00:52:28 00:54:52 15° 28° (NNE) 00:57:16 437.485
BEESAT 2 06 Feb 01:08:26 01:10:52 15° 28° (NNE) 01:13:15 435.950
POLYITAN 1 06 Feb 01:23:01 01:25:02 13° 302° (WNW) 01:27:02 437.675
QB50P2 06 Feb 01:24:02 01:25:55 13° 302° (WNW) 01:27:47 145.880/145.840
Gurwin Techsat 1B 06 Feb 01:25:33 01:29:30 21° 90° (E) 01:33:26 435.225
Oscar 19 06 Feb 01:30:19 01:35:22 53° 100° (E) 01:40:22 437.125/150
SWISSCUBE 06 Feb 01:31:37 01:36:21 67° 257° (WSW) 01:41:08 437.505
BUGSAT 1 06 Feb 01:51:45 01:53:28 12° 303° (WNW) 01:55:11 437.445
STARS 06 Feb 01:52:31 01:55:37 19° 61° (ENE) 01:58:43 437.465
KKS-1 06 Feb 01:56:24 02:00:25 34° 66° (ENE) 02:04:27 437.445
Cosmos 2491 06 Feb 02:01:29 02:09:58 51° 71° (ENE) 02:18:26 435.465 / 435.565
ITUPSAT 1 06 Feb 02:06:33 02:10:56 36° 263° (W) 02:15:22 437.325
DANDE 06 Feb 02:09:49 02:16:49 42° 88° (E) 02:24:37 436.750
CUSAT 1 06 Feb 02:13:28 02:21:13 67° 96° (E) 02:29:15 437.405
BEESAT 06 Feb 02:18:27 02:22:32 28° 265° (W) 02:26:40 436.000
JAS-2 06 Feb 02:22:44 02:28:51 87° 286° (WNW) 02:34:17 435.910
AIST 2 06 Feb 02:28:31 02:30:46 14° 25° (NNE) 02:32:59 435.215
ITAMSAT 1 06 Feb 02:29:16 02:34:09 38° 97° (E) 02:39:01 435.822/435.867
BEESAT 3 06 Feb 02:29:24 02:33:24 67° 50° (NE) 02:37:19 437.485
BEESAT 2 06 Feb 02:45:32 02:49:32 65° 48° (NE) 02:53:30 435.950
MOZHAYETS 4 06 Feb 02:53:35 02:57:57 46° 69° (ENE) 03:02:20
YUBILEINY 06 Feb 02:58:05 03:06:01 40° 85° (E) 03:14:01 435.215
Gurwin Techsat 1B 06 Feb 03:04:38 03:09:55 64° 289° (WNW) 03:15:10 435.225
Oscar 19 06 Feb 03:10:14 03:14:24 25° 299° (WNW) 03:18:33 437.125/150
CUBESAT XI-V 06 Feb 03:24:28 03:26:52 14° 56° (ENE) 03:29:16 437.345
AO-7 06 Feb 03:26:42 03:34:24 39° 97° (E) 03:42:00 29.400- 29.500
STARS 06 Feb 03:27:16 03:31:37 57° 259° (W) 03:35:59 437.465
KKS-1 06 Feb 03:33:04 03:37:01 30° 264° (W) 03:40:58 437.445
Cosmos 2504 06 Feb 03:33:42 03:38:04 15° 70° (ENE) 03:42:31 435.465 / 435.565
AUBIESAT-1 06 Feb 03:40:16 03:41:45 12° 97° (E) 03:43:14 437.475
PHONESAT 2.4 06 Feb 03:51:42 03:53:47 16° 166° (SSE) 03:55:52 2401.200-2431.200
DANDE 06 Feb 03:52:10 03:59:38 54° 290° (WNW) 04:07:59 436.750
CUSAT 1 06 Feb 03:56:54 04:04:05 36° 296° (WNW) 04:11:22 437.405
Cosmos 2491 06 Feb 03:58:40 04:06:41 43° 274° (W) 04:14:43 435.465 / 435.565
AIST 2 06 Feb 04:06:08 04:10:12 51° 46° (NE) 04:14:14 435.215
BEESAT 3 06 Feb 04:08:20 04:10:40 15° 248° (WSW) 04:13:01 437.485
ITAMSAT 1 06 Feb 04:08:52 04:13:35 35° 296° (WNW) 04:18:16 435.822/435.867
JAS-2 06 Feb 04:09:07 04:12:57 18° 309° (NW) 04:16:34 435.910
BEESAT 2 06 Feb 04:24:29 04:26:59 16° 248° (WSW) 04:29:28 435.950
MOZHAYETS 4 06 Feb 04:31:48 04:35:22 22° 268° (W) 04:38:58
HORYU 2 06 Feb 04:46:39 04:51:06 73° 104° (ESE) 04:55:32 437.375
Gurwin Techsat 1B 06 Feb 04:46:49 04:48:52 12° 309° (NW) 04:50:56 435.225
YUBILEINY 06 Feb 04:54:02 05:02:35 55° 287° (WNW) 05:11:16 435.215
CUBESAT XI-V 06 Feb 04:58:52 05:03:33 89° 64° (ENE) 05:08:18 437.345
M-CUBED/EXP-1 PRIME 06 Feb 04:59:36 05:02:51 60° 293° (WNW) 05:06:13 437.505
AUBIESAT-1 06 Feb 05:13:23 05:16:38 50° 294° (WNW) 05:19:59 437.475
CUTE-I 06 Feb 05:15:42 05:18:43 15° 87° (E) 05:21:43 437.470
AO-7 06 Feb 05:19:23 05:27:31 59° 298° (WNW) 05:35:35 29.400- 29.500
Cosmos 2504 06 Feb 05:21:13 05:29:37 65° 92° (E) 05:38:23 435.465 / 435.565
LilacSat-2 06 Feb 05:25:49 05:26:56 11° 88° (E) 05:28:03 437.200
Cubesat XI-IV 06 Feb 05:27:29 05:31:14 19° 90° (E) 05:34:59 437.490
PHONESAT 2.4 06 Feb 05:27:57 05:30:26 20° 183° (S) 05:32:55 2401.200-2431.200
STRAND 1 06 Feb 05:32:07 05:36:41 34° 64° (ENE) 05:41:16 437.568
DANDE 06 Feb 05:40:00 05:44:46 16° 313° (NW) 05:49:43 436.750
AIST 2 06 Feb 05:45:14 05:48:24 22° 246° (WSW) 05:51:34 435.215
BRITE-PL 06 Feb 05:55:22 05:58:40 18° 87° (E) 06:01:47 437.365/2234.400
SO-50 06 Feb 06:20:53 06:25:44 61° 124° (ESE) 06:30:38 436.795
HORYU 2 06 Feb 06:24:28 06:27:09 16° 302° (WNW) 06:29:49 437.375
CUBESAT XI-V 06 Feb 06:39:46 06:41:38 12° 274° (W) 06:43:31 437.345
PRISM 06 Feb 06:51:55 06:56:00 57° 72° (ENE) 07:00:08 437.425
CUTE-I 06 Feb 06:54:04 06:59:29 88° 289° (WNW) 07:04:53 437.470
YUBILEINY 06 Feb 06:57:29 07:01:55 14° 314° (NW) 07:06:22 435.215
LilacSat-2 06 Feb 06:57:57 07:01:44 68° 286° (WNW) 07:05:29 437.200
PHONESAT 2.4 06 Feb 07:05:38 07:07:01 12° 200° (SSW) 07:08:24 2401.200-2431.200
Cubesat XI-IV 06 Feb 07:06:29 07:11:51 71° 288° (WNW) 07:17:13 437.490
STRAND 1 06 Feb 07:11:05 07:15:49 38° 263° (W) 07:20:35 437.568
AO-7 06 Feb 07:13:26 07:18:39 19° 321° (NW) 07:23:52 29.400- 29.500
Cosmos 2504 06 Feb 07:15:53 07:23:37 36° 295° (WNW) 07:31:40 435.465 / 435.565
GOMX 1 06 Feb 07:22:23 07:26:58 56° 100° (E) 07:31:14 467.674
DOVE 4 06 Feb 07:25:07 07:29:02 31° 95° (E) 07:32:46 437.250
BRITE-PL 06 Feb 07:32:43 07:37:44 64° 288° (WNW) 07:42:19 437.365/2234.400
O/OREOS (USA 219) 06 Feb 07:40:03 07:41:15 11° 96° (E) 07:42:26 437.305
AAUSAT CUBESAT 2 06 Feb 07:48:22 07:49:47 11° 87° (E) 07:51:12 437.432
CANX-2 06 Feb 07:50:36 07:54:18 28° 94° (E) 07:58:01 2200.000
SO-50 06 Feb 08:02:13 08:06:35 30° 324° (NW) 08:10:59 436.795
UNISAT 6 06 Feb 08:06:50 08:08:18 12° 57° (ENE) 08:09:46 437.425
HO-68 06 Feb 08:12:28 08:19:24 47° 99° (E) 08:26:17 435.675
Oscar 11 06 Feb 08:19:13 08:20:15 11° 86° (E) 08:21:18 145.826/435.025
GONETS M04 06 Feb 08:23:01 08:30:24 33° 82° (E) 08:37:49
PRISM 06 Feb 08:29:10 08:31:43 16° 270° (W) 08:34:17 437.425
CUTE-I 06 Feb 08:35:31 08:38:48 17° 306° (NW) 08:42:07 437.470
CUTE 1.7 + AOD 2 06 Feb 08:41:39 08:45:58 82° 105° (ESE) 08:50:15 437.475
Cosmos 2499 06 Feb 08:45:07 08:51:06 21° 75° (ENE) 08:57:10 435.465 / 435.565
Cubesat XI-IV 06 Feb 08:48:25 08:51:02 14° 308° (NW) 08:53:37 437.490
COMPASS 1 06 Feb 08:48:55 08:53:05 57° 100° (E) 08:57:14 437.405
ANTELSAT 06 Feb 08:49:22 08:53:01 27° 65° (ENE) 08:56:39 437.575/2403.000
CINEMA 3 06 Feb 08:50:10 08:54:23 82° 102° (ESE) 08:58:32 145.822/145.860
SEEDS 06 Feb 08:55:28 08:59:45 87° 103° (ESE) 09:04:01 437.485
TIGRISAT 06 Feb 08:57:32 09:01:21 31° 67° (ENE) 09:05:08 435.000
GOMX 1 06 Feb 09:01:19 09:04:38 20° 300° (WNW) 09:07:49 467.674
ZACube-1 06 Feb 09:02:37 09:05:57 23° 93° (E) 09:09:19 437.345
DOVE 4 06 Feb 09:02:54 09:06:44 29° 295° (WNW) 09:10:24 437.250
POLYITAN 1 06 Feb 09:08:41 09:10:39 13° 58° (ENE) 09:12:36 437.675
QB50P2 06 Feb 09:09:23 09:11:30 14° 58° (ENE) 09:13:37 145.880/145.840
FUNcube-1 06 Feb 09:13:43 09:17:19 28° 95° (E) 09:20:57 145.935
BRITE-PL 06 Feb 09:13:47 09:15:07 11° 309° (NW) 09:16:27 437.365/2234.400
O/OREOS (USA 219) 06 Feb 09:15:23 09:19:52 88° 113° (ESE) 09:24:26 437.305
AAUSAT CUBESAT 2 06 Feb 09:21:39 09:25:51 80° 288° (WNW) 09:30:04 437.432
CUBEBUG 2 06 Feb 09:25:09 09:29:19 72° 102° (ESE) 09:33:30 437.445
CANX-2 06 Feb 09:26:22 09:30:12 33° 293° (WNW) 09:34:03 2200.000
DELFI C3 06 Feb 09:33:22 09:37:03 33° 96° (E) 09:40:43 145.870
UWE-3 06 Feb 09:34:44 09:38:54 66° 102° (ESE) 09:43:05 435.000/436.395/437.385
BUGSAT 1 06 Feb 09:35:15 09:37:00 12° 58° (ENE) 09:38:45 437.445
POPSAT HIP 1 06 Feb 09:38:43 09:42:06 23° 64° (ENE) 09:45:29 437.405
UNISAT 6 06 Feb 09:40:00 09:44:21 84° 75° (ENE) 09:48:40 437.425
NANOSAT C BR1 06 Feb 09:45:51 09:49:24 27° 65° (ENE) 09:52:57 145.865
SO-50 06 Feb 09:46:10 09:48:38 14° 348° (NNW) 09:51:08 436.795
DUCHIFAT 1 06 Feb 09:49:06 09:52:41 27° 65° (ENE) 09:56:16 145.980
QB50P1 06 Feb 09:51:20 09:55:04 31° 67° (ENE) 09:58:48 145.935-145.965
Oscar 11 06 Feb 09:52:40 09:57:02 89° 291° (WNW) 10:01:23 145.826/435.025
HUMSAT D 06 Feb 09:56:54 10:00:25 26° 94° (E) 10:03:56 437.325/437.525
HO-68 06 Feb 10:00:23 10:07:05 43° 299° (WNW) 10:13:44 435.675
AIST 1 06 Feb 10:10:43 10:13:37 17° 85° (E) 10:16:30
GONETS M04 06 Feb 10:18:03 10:26:39 65° 284° (WNW) 10:35:21
CUTE 1.7 + AOD 2 06 Feb 10:19:08 10:21:13 13° 301° (WNW) 10:23:18 437.475
PCSat 06 Feb 10:24:46 10:26:02 11° 101° (E) 10:27:16 145.827
COMPASS 1 06 Feb 10:25:27 10:28:17 18° 298° (WNW) 10:31:06 437.405
ANTELSAT 06 Feb 10:25:42 10:29:40 34° 263° (W) 10:33:37 437.575/2403.000
CINEMA 3 06 Feb 10:29:08 10:30:56 13° 302° (WNW) 10:32:43 145.822/145.860
SEEDS 06 Feb 10:33:01 10:34:51 13° 302° (WNW) 10:36:40 437.485
RS-15 06 Feb 10:33:12 10:40:25 20° 97° (E) 10:47:50 29.354- 29.394
Cosmos 2499 06 Feb 10:34:12 10:42:54 83° 96° (E) 10:51:51 435.465 / 435.565
TIGRISAT 06 Feb 10:34:13 10:38:03 30° 264° (W) 10:41:51 435.000
50 SAT 06 Feb 10:35:30 10:37:51 16° 91° (E) 10:40:12 437.505
VELOX 1 06 Feb 10:38:19 10:41:01 16° 90° (E) 10:43:41 145.980
ZACube-1 06 Feb 10:38:31 10:42:24 39° 291° (WNW) 10:46:20 437.345
POLYITAN 1 06 Feb 10:41:38 10:45:52 84° 251° (WSW) 10:50:08 437.675
QB50P2 06 Feb 10:42:29 10:46:45 80° 255° (WSW) 10:51:01 145.880/145.840
FUNcube-1 06 Feb 10:49:54 10:53:37 32° 292° (WNW) 10:57:20 145.935
AISAT 06 Feb 10:53:37 10:57:09 23° 93° (E) 11:00:38 437.250
JAS-2 06 Feb 10:55:22 10:59:57 18° 51° (NE) 11:04:18 435.910
O/OREOS (USA 219) 06 Feb 10:57:09 10:59:58 16° 316° (NW) 11:02:47 437.305
ESTCUBE 1 06 Feb 10:58:54 11:02:51 28° 95° (E) 11:06:47 437.505/2401.250
AAUSAT CUBESAT 2 06 Feb 10:59:39 11:00:39 11° 303° (WNW) 11:01:39 437.432
CUBEBUG 2 06 Feb 11:03:15 11:05:28 14° 301° (WNW) 11:07:40 437.445
DANDE 06 Feb 11:06:03 11:08:34 12° 40° (NE) 11:10:58 436.750
CUSAT 1 06 Feb 11:06:55 11:10:09 14° 46° (NE) 11:13:06 437.405
BUGSAT 1 06 Feb 11:07:32 11:11:47 88° 255° (WSW) 11:16:00 437.445
DELFI C3 06 Feb 11:08:30 11:11:52 26° 294° (WNW) 11:15:14 145.870
UWE-3 06 Feb 11:12:31 11:14:55 15° 300° (WNW) 11:17:20 435.000/436.395/437.385
POPSAT HIP 1 06 Feb 11:13:42 11:17:42 40° 262° (W) 11:21:44 437.405
Oscar 19 06 Feb 11:13:42 11:17:18 19° 57° (ENE) 11:20:53 437.125/150
AO-85 06 Feb 11:20:06 11:25:10 44° 119° (ESE) 11:30:23 145.980
UNISAT 6 06 Feb 11:20:21 11:21:41 11° 273° (W) 11:23:01 437.425
NANOSAT C BR1 06 Feb 11:21:09 11:25:03 35° 263° (W) 11:28:56 145.865
DUCHIFAT 1 06 Feb 11:24:28 11:28:19 33° 263° (W) 11:32:11 145.980
CUBEBUG 1 06 Feb 11:24:51 11:28:57 37° 97° (E) 11:33:00 437.445
QB50P1 06 Feb 11:27:06 11:30:51 30° 264° (W) 11:34:36 145.935-145.965
UKube-1 06 Feb 11:28:40 11:32:49 43° 99° (E) 11:36:56 .
SO-50 06 Feb 11:28:42 11:31:13 14° 13° (NNE) 11:33:44 436.795
Oscar 11 06 Feb 11:30:41 11:32:30 12° 303° (WNW) 11:34:20 145.826/435.025
HUMSAT D 06 Feb 11:32:23 11:36:08 33° 292° (WNW) 11:39:52 437.325/437.525
DX 1 06 Feb 11:33:21 11:37:40 56° 101° (E) 11:41:56 434.975-435.025
SPROUT 06 Feb 11:45:19 11:48:46 23° 93° (E) 11:52:11 437.525
AIST 1 06 Feb 11:46:29 11:50:47 53° 283° (WNW) 11:55:09
HO-68 06 Feb 11:50:38 11:52:59 12° 322° (NW) 11:55:21 435.675
PCSat 06 Feb 12:03:01 12:08:23 67° 120° (ESE) 12:13:47 145.827
50 SAT 06 Feb 12:08:31 12:12:10 47° 289° (WNW) 12:15:50 437.505
TISAT 1 06 Feb 12:10:22 12:13:04 17° 91° (E) 12:15:45 437.305
VELOX 1 06 Feb 12:13:32 12:17:57 64° 287° (WNW) 12:22:19 145.980
ITAMSAT 1 06 Feb 12:14:27 12:17:23 15° 54° (NE) 12:20:19 435.822/435.867
GONETS M04 06 Feb 12:20:17 12:25:34 17° 310° (NW) 12:30:55
AISAT 06 Feb 12:29:38 12:33:50 43° 291° (WNW) 12:38:00 437.250
Cosmos 2499 06 Feb 12:29:51 12:37:08 28° 300° (WNW) 12:44:33 435.465 / 435.565
ESTCUBE 1 06 Feb 12:35:33 12:39:45 37° 293° (WNW) 12:43:55 437.505/2401.250
JAS-2 06 Feb 12:36:18 12:43:55 67° 70° (ENE) 12:50:55 435.910
RS-15 06 Feb 12:39:27 12:50:32 73° 121° (ESE) 13:02:16 29.354- 29.394
AO-7 06 Feb 12:40:20 12:46:17 22° 43° (NE) 12:52:13 29.400- 29.500
DANDE 06 Feb 12:46:47 12:54:13 42° 65° (ENE) 13:00:13 436.750
CUSAT 1 06 Feb 12:47:38 12:54:25 59° 72° (ENE) 12:59:35 437.405
Gurwin Techsat 1B 06 Feb 12:50:00 12:55:03 46° 67° (ENE) 13:00:08 435.225
Oscar 19 06 Feb 12:50:52 12:56:04 75° 256° (WSW) 13:01:16 437.125/150
AO-85 06 Feb 13:00:36 13:05:48 43° 319° (NW) 13:11:04 145.980
CUBEBUG 1 06 Feb 13:01:26 13:05:07 27° 296° (WNW) 13:08:46 437.445
YUBILEINY 06 Feb 13:02:53 13:09:58 26° 58° (ENE) 13:17:00 435.215
UKube-1 06 Feb 13:05:14 13:08:40 23° 297° (WNW) 13:12:05 .
SO-50 06 Feb 13:08:51 13:13:15 32° 37° (NE) 13:17:31 436.795
DX 1 06 Feb 13:10:24 13:13:29 19° 300° (WNW) 13:16:33 434.975-435.025
SPROUT 06 Feb 13:20:54 13:24:54 39° 291° (WNW) 13:28:51 437.525
SWISSCUBE 06 Feb 13:28:27 13:32:20 24° 93° (E) 13:36:12 437.505
TISAT 1 06 Feb 13:45:00 13:49:06 54° 288° (WNW) 13:53:10 437.305
PCSat 06 Feb 13:47:33 13:52:14 29° 321° (NW) 13:56:58 145.827
ITAMSAT 1 06 Feb 13:50:54 13:56:05 84° 74° (ENE) 14:01:20 435.822/435.867
ITUPSAT 1 06 Feb 14:02:42 14:07:19 43° 99° (E) 14:11:54 437.325
BEESAT 06 Feb 14:13:46 14:18:29 55° 101° (E) 14:23:12 436.000
HORYU 2 06 Feb 14:14:07 14:16:37 15° 58° (ENE) 14:19:07 437.375
M-CUBED/EXP-1 PRIME 06 Feb 14:16:12 14:19:27 30° 63° (ENE) 14:22:30 437.505
JAS-2 06 Feb 14:22:42 14:29:19 31° 268° (W) 14:35:31 435.910
AO-7 06 Feb 14:29:26 14:37:44 71° 65° (ENE) 14:46:04 29.400- 29.500
AUBIESAT-1 06 Feb 14:29:26 14:32:45 34° 64° (ENE) 14:35:56 437.475
DANDE 06 Feb 14:30:00 14:37:19 46° 271° (W) 14:43:11 436.750
Gurwin Techsat 1B 06 Feb 14:30:39 14:35:12 29° 266° (W) 14:39:47 435.225
CUSAT 1 06 Feb 14:30:50 14:35:59 25° 279° (W) 14:40:14 437.405
Oscar 19 06 Feb 14:34:51 14:36:17 11° 275° (W) 14:37:42 437.125/150
AO-85 06 Feb 14:44:04 14:47:43 18° 341° (NNW) 14:51:21 145.980
SO-50 06 Feb 14:49:16 14:54:01 54° 238° (WSW) 14:58:36 436.795
RS-15 06 Feb 14:52:51 15:03:49 50° 329° (NNW) 15:15:26 29.354- 29.394
YUBILEINY 06 Feb 14:59:08 15:08:02 87° 264° (W) 15:16:53 435.215
SWISSCUBE 06 Feb 15:05:45 15:10:23 48° 291° (WNW) 15:14:59 437.505
Cosmos 2491 06 Feb 15:07:24 15:15:40 50° 89° (E) 15:23:57 435.465 / 435.565
Cosmos 2504 06 Feb 15:09:42 15:17:26 32° 63° (ENE) 15:24:46 435.465 / 435.565
STARS 06 Feb 15:13:37 15:16:49 20° 92° (E) 15:19:59 437.465
KKS-1 06 Feb 15:19:39 15:23:49 38° 98° (E) 15:27:57 437.445
ITAMSAT 1 06 Feb 15:33:19 15:36:15 15° 272° (W) 15:39:12 435.822/435.867
PCSat 06 Feb 15:35:22 15:37:32 12° 346° (NNW) 15:39:41 145.827
ITUPSAT 1 06 Feb 15:40:56 15:44:59 28° 297° (WNW) 15:49:02 437.325
HORYU 2 06 Feb 15:48:13 15:52:38 77° 256° (WSW) 15:57:04 437.375
M-CUBED/EXP-1 PRIME 06 Feb 15:51:07 15:54:08 23° 258° (WSW) 15:57:00 437.505
BEESAT 06 Feb 15:52:16 15:55:57 22° 299° (WNW) 15:59:36 436.000
AUBIESAT-1 06 Feb 16:04:42 16:07:27 20° 259° (W) 16:10:06 437.475
LilacSat-2 06 Feb 16:12:15 16:13:24 11° 59° (ENE) 16:14:33 437.200
MOZHAYETS 4 06 Feb 16:21:31 16:26:09 67° 102° (ESE) 16:30:46
AO-7 06 Feb 16:24:00 16:31:10 31° 266° (W) 16:38:24 29.400- 29.500
AO-85 06 Feb 16:27:30 16:30:24 14° 6° (N) 16:33:14 145.980
CUTE-I 06 Feb 16:40:35 16:45:22 35° 64° (ENE) 16:50:13 437.470
STARS 06 Feb 16:49:14 16:53:28 49° 290° (WNW) 16:57:41 437.465
CUBESAT XI-V 06 Feb 16:52:39 16:55:50 18° 89° (E) 16:59:00 437.345
Cubesat XI-IV 06 Feb 16:52:49 16:57:50 44° 66° (ENE) 17:02:53 437.490
KKS-1 06 Feb 16:56:33 17:00:15 26° 296° (WNW) 17:03:56 437.445
YUBILEINY 06 Feb 16:57:25 17:03:35 22° 284° (WNW) 17:09:43 435.215
GOMX 1 06 Feb 16:57:40 17:00:58 17° 58° (ENE) 17:04:11 467.674
HO-68 06 Feb 17:02:02 17:05:30 14° 42° (NE) 17:08:58 435.675
Cosmos 2504 06 Feb 17:02:53 17:11:37 70° 267° (W) 17:19:48 435.465 / 435.565
Cosmos 2491 06 Feb 17:04:28 17:12:40 44° 291° (WNW) 17:20:56 435.465 / 435.565
BRITE-PL 06 Feb 17:08:15 17:13:20 35° 65° (ENE) 17:18:19 437.365/2234.400
RS-15 06 Feb 17:09:11 17:19:46 36° 2° (N) 17:30:45 29.354- 29.394
PCSat 06 Feb 17:21:26 17:23:31 12° 13° (NNE) 17:25:37 145.827
